Location: Liscomb Game Sanctuary
(45.1633°N, 62.5575°W)
Time: 11:23:04
(UTC-03:00)

SJ-6B - Pass Details

Date: 22 February 2018
Orbit: 512 x 582 km, 97.7° (Epoch: 21 June)

Event Time Altitude Azimuth Distance (km) Brightness Sun altitude
Rises 19:53:10 0° 186° (S) 2,624 6.3 -22.7°
Reaches altitude 10° 19:55:22 10° 196° (SSW) 1,750 5.4 -23.1°
Maximum altitude 19:58:50 35° 263° (W) 874 4.3 -23.7°
Drops below altitude 10° 20:02:24 10° 330° (NNW) 1,795 5.9 -24.3°
Sets 20:04:41 0° 339° (NNW) 2,704 6.8 -24.7°
